Regional Weather Roundup
Issued by NWS

Home | Current Version | Previous Version | Text Only | Print | Product List | Glossary Off
Versions: 1 2 3 4 5 6 7 8 9 10 11 12 13 14 15 16 17 18 19 20 21 22 23 24 25 26 27 28 29 30 31 32 33 34 35 36 37 38 39 40 41 42 43 44 45 46 47 48 49 50

000
ASUS43 KDTX 220001
RWRMI
MICHIGAN HOURLY REGIONAL WEATHER ROUNDUP
NATIONAL WEATHER SERVICE DETROIT/PONTIAC MI
800 PM EDT MON MAY 21 2018

NOTE: "FAIR" INDICATES FEW OR NO CLOUDS BELOW 12,000 FEET WITH NO
SIGNIFICANT WEATHER AND/OR OBSTRUCTION TO VISIBILITY.

MIZ047>049-052>055-059>063-066>070-074>076-081>083-220100-
SOUTHEAST LOWER MICHIGAN

CITY           SKY/WX    TMP DP  RH WIND       PRES   REMARKS
ADRIAN         CLOUDY    55  53  93 E10       30.09R
6HR MIN TEMP:  55; 6HR MAX TEMP:  63; 6HR PCP:  0.72;

ALMA           CLOUDY    56  48  76 E7        30.09S
6HR MIN TEMP:  55; 6HR MAX TEMP:  61;

ANN ARBOR      CLOUDY    53  50  89 N8        30.08F
BAD AXE        MOCLDY    56  52  86 NE3       30.11F
6HR MIN TEMP:  55; 6HR MAX TEMP:  63;

CARO           CLOUDY    58  43  57 CALM      30.09F
DETROIT CITY   LGT RAIN  55  49  80 E3        30.09F
6HR MIN TEMP:  55; 6HR MAX TEMP:  66; 6HR PCP:  0.23;

DETROIT        LGT RAIN  54  48  80 NE7       30.08S
6HR MIN TEMP:  54; 6HR MAX TEMP:  67; 6HR PCP:  0.42;

FLINT          CLOUDY    55  44  66 SE8       30.10F
6HR MIN TEMP:  55; 6HR MAX TEMP:  65; 6HR PCP:  0.08;

GROSSE ILE     HVY RAIN  53  49  85 NE10G18   30.06F
6HR MIN TEMP:  53; 6HR MAX TEMP:  67; 6HR PCP:  0.29;

HILLSDALE      CLOUDY    54  52  94 E7        30.06S
HOWELL         CLOUDY    54  51  89 E3        30.09S
6HR MIN TEMP:  53; 6HR MAX TEMP:  64; 6HR PCP:  0.13;


CITY           SKY/WX    TMP DP  RH WIND       PRES   REMARKS
JACKSON        CLOUDY    55  53  93 E8        30.07S
6HR MIN TEMP:  55; 6HR MAX TEMP:  60; 6HR PCP:  0.45;

LAMBERTVILLE   CLOUDY    57  53  84 NE5       30.07S
6HR MIN TEMP:  57; 6HR MAX TEMP:  64;

LANSING        CLOUDY    54  52  93 E8        30.08F
6HR MIN TEMP:  52; 6HR MAX TEMP:  62; 6HR PCP:  0.34;

LAPEER         CLOUDY    60  45  57 E5        30.09F
6HR MIN TEMP:  59; 6HR MAX TEMP:  64;

MASON          CLOUDY    54  50  86 E5        30.08F
6HR MIN TEMP:  54; 6HR MAX TEMP:  63;

MONROE         DRIZZLE   54  52  93 E6        30.07S
6HR MIN TEMP:  54; 6HR MAX TEMP:  65; 6HR PCP:  0.45;

MT. CLEMENS    LGT RAIN  59  58  96 CALM      30.07F
6HR MIN TEMP:  59; 6HR MAX TEMP:  66; 6HR PCP:  0.06;

PONTIAC        RAIN      54  49  83 E8        30.09S
6HR MIN TEMP:  54; 6HR MAX TEMP:  64; 6HR PCP:  0.14;

PORT HOPE        N/A     50  43  77 E5        30.11F
6HR MIN TEMP:  49; 6HR MAX TEMP:  54; 6HR PCP:  0.04;

PORT HURON     DRIZZLE   52  43  71 NE3       30.11S
TRI CITIES     CLOUDY    58  53  84 E7        30.09F
6HR MIN TEMP:  57; 6HR MAX TEMP:  65; 6HR PCP:  0.04;

MIDLAND        CLOUDY    53  49  87 NE6       30.07F
6HR MIN TEMP:  53; 6HR MAX TEMP:  62; 6HR PCP:  0.02;

TROY           RAIN      56  53  88 NE3       30.11F
SAGINAW HB     CLOUDY    59  52  77 NE3       30.09F
$$
MIZ043>046-050>051-056>058-064>065-071>073-077>080-220100-
SOUTHWEST LOWER MICHIGAN

CITY           SKY/WX    TMP DP  RH WIND       PRES   REMARKS
BATTLE CREEK   LGT RAIN  56  54  93 E8        30.05F
6HR MIN TEMP:  56; 6HR MAX TEMP:  58; 6HR PCP:  0.47;

BENTON HARBOR  CLOUDY    60  57  89 E9        30.00F
6HR MIN TEMP:  58; 6HR MAX TEMP:  61; 6HR PCP:  0.06;

BIG RAPIDS     MIX PCPN  52  47  82 NE3       30.08S
6HR MIN TEMP:  51; 6HR MAX TEMP:  57; 6HR PCP:  0.12;

COLDWATER      CLOUDY    57  56  95 E10       30.05S
6HR MIN TEMP:  55; 6HR MAX TEMP:  58;

FREMONT        CLOUDY    52  49  90 E3        30.06S FOG
6HR MIN TEMP:  51; 6HR MAX TEMP:  55;

GRAND RAPIDS   RAIN      53  50  89 E10       30.06S FOG
6HR MIN TEMP:  53; 6HR MAX TEMP:  56; 6HR PCP:  0.49;

IONIA          DRIZZLE   52  49  91 E12       30.07S
6HR MIN TEMP:  51; 6HR MAX TEMP:  57; 6HR PCP:  0.46;

KALAMAZOO      LGT RAIN  58  55  90 E5        30.05S
6HR MIN TEMP:  57; 6HR MAX TEMP:  59; 6HR PCP:  0.11;

LUDINGTON      DRIZZLE   51  50  95 E6        30.07S
6HR MIN TEMP:  51; 6HR MAX TEMP:  58; 6HR PCP:  0.08;

MARSHALL       CLOUDY    55  54  95 E5        30.06S
6HR MIN TEMP:  55; 6HR MAX TEMP:  59; 6HR PCP:  0.19;

MOUNT PLEASANT CLOUDY    56  53  88 E5        30.08R
6HR MIN TEMP:  56; 6HR MAX TEMP:  62; 6HR PCP:  0.05;

MUSKEGON       RAIN      53  49  86 E14       30.05S FOG
6HR MIN TEMP:  53; 6HR MAX TEMP:  55; 6HR PCP:  0.35;

SOUTH HAVEN    CLOUDY    59  57  94 SE3       30.02S
$$
MIZ016>042-220100-
NORTHERN LOWER MICHIGAN

CITY           SKY/WX    TMP DP  RH WIND       PRES   REMARKS
ALPENA         FAIR      60  38  43 SE7       30.13S
6HR MIN TEMP:  60; 6HR MAX TEMP:  67;

BEAVER ISLAND  FAIR      64  40  42 SW5       30.10F
6HR MIN TEMP:  61; 6HR MAX TEMP:  68;

BELLAIRE       PTSUNNY   62  37  40 S6        30.10F
6HR MIN TEMP:  62; 6HR MAX TEMP:  71;

CADILLAC       DRIZZLE   51  46  83 E8        30.10F
CHARLEVOIX     FAIR      56  41  55 CALM      30.14S
6HR MIN TEMP:  54; 6HR MAX TEMP:  62;

FRANKFORT      RAIN      55  50  84 E5        30.10F
GAYLORD        CLOUDY    60  35  39 S13       30.12S
6HR MIN TEMP:  60; 6HR MAX TEMP:  68;

GRAYLING       MOCLDY    56  41  58 S7        30.12S
6HR MIN TEMP:  56; 6HR MAX TEMP:  69; 6HR PCP: TRACE;

HARBOR SPRINGS FAIR      50  42  73 SW5       30.11S
HOUGHTON LAKE  CLOUDY    53  44  71 SE6       30.13F
6HR MIN TEMP:  53; 6HR MAX TEMP:  64; 6HR PCP:  0.01;

MANISTEE       LGT RAIN  52  49  89 E9        30.08
OSCODA         LGT RAIN  55  34  44 CALM      30.13F
PELLSTON       FAIR      71  34  25 S8        30.09F
6HR MIN TEMP:  70; 6HR MAX TEMP:  74;

ROGERS CITY    FAIR      64  39  40 SE5       30.12F
$$
MIZ007>008-015-220100-
EASTERN UPPER MICHIGAN

CITY           SKY/WX    TMP DP  RH WIND       PRES   REMARKS
KINROSS        FAIR      66  39  37 SE8       30.10F
6HR MIN TEMP:  66; 6HR MAX TEMP:  75;

MACKINAC ISLAN FAIR      55  38  51 E8        30.09F
6HR MIN TEMP:  55; 6HR MAX TEMP:  67;

NEWBERRY       FAIR      64  39  39 S7        30.08F
6HR MIN TEMP:  64; 6HR MAX TEMP:  73;

S. S. MARIE    FAIR      69  37  30 SE8       30.09F
6HR MIN TEMP:  69; 6HR MAX TEMP:  77;

MUNISING         N/A     65  31  28 SW13G21   30.06F
6HR MIN TEMP:  57; 6HR MAX TEMP:  76;

$$
MIZ004>006-011>014-085-220100-
CENTRAL UPPER MICHIGAN

CITY           SKY/WX    TMP DP  RH WIND       PRES   REMARKS
MANISTIQUE     FAIR      56  44  62 S5        30.09S
6HR MIN TEMP:  56; 6HR MAX TEMP:  65;

ESCANABA       CLOUDY    54  46  74 S5        30.10F
6HR MIN TEMP:  53; 6HR MAX TEMP:  62;

SAWYER-GWINN   SUNNY     63  39  42 S14       30.08S
$$
MIZ001>003-009>011-084-220100-
WESTERN UPPER MICHIGAN

CITY           SKY/WX    TMP DP  RH WIND       PRES   REMARKS
IRON MOUNTAIN  CLOUDY    59  44  57 S8        30.07S
6HR MIN TEMP:  59; 6HR MAX TEMP:  72;

HOUGHTON       FAIR      59  30  33 E8        30.02F
6HR MIN TEMP:  59; 6HR MAX TEMP:  73;

COPPER HARBOR    N/A     52  37  56 VRB3      30.02F
6HR MIN TEMP:  47; 6HR MAX TEMP:  71;

IRONWOOD       CLOUDY    65  38  36 CALM      30.02F
6HR MIN TEMP:  65; 6HR MAX TEMP:  75;

$$

ABBREVIATIONS USED IN REMARKS
   TC - TEMPERATURE IN CELSIUS
  WCI - WIND CHILL INDEX
   HX - HEAT INDEX
  VSB - VISIBILITY




USA.gov is the U.S. government's official web portal to all federal, state and local government web resources and services.